Home > Weather > Dillenburg > Past weeks

Flag for Germany Weather for the Past 2 Weeks in Dillenburg, Hesse, Germany

Now
39 °F

Broken clouds.


Feels Like: 31 °F
Forecast: 39 / 62 °F
Wind: 14 mph from North

Location: Hessen

Current Time: May 1, 2016 at 10:10:24 AM

Latest Report: May 1, 2016 at 9:20 AM


Visibility: 5 mi

Pressure: 30.15 "Hg

Humidity: 100%

Dew Point: 39 °F

Location of DillenburgLocation

Historic Weather in Dillenburg — Graph

°F

Dillenburg Temperature Yesterday

Maximum temperature yesterday: 48 °F (at 10:20 AM)
Minimum temperature yesterday: 39 °F (at 6:20 AM)
Average temperature yesterday: 45 °F

High & Low Weather Summary for the Past Weeks

 TemperatureHumidityPressure
High63 °F (Apr 21, 5:20 PM)100% (Apr 16, 8:20 PM)30.42 "Hg (Apr 16, 8:20 PM)
Low30 °F (Apr 24, 7:50 AM)30% (Apr 21, 5:50 PM)29.47 "Hg (Apr 26, 7:50 AM)
Average42 °F71%29.93 "Hg
* Reported Apr 16 8:20 AM — May 1 8:20 AM, Dillenburg, Weather by CustomWeather, © 2016

Note: Actual official high and low records may vary slightly from our data, if they occured in-between our weather recording intervals... More about our weather records

Advertising

Dillenburg Weather History for the Previous 24 Hours

Scroll right to see more
 ConditionsComfort  
Time TempWeatherWind HumidityBarometerVisibility
8:20 AM
Sun, May 1
39 °FMore clouds than sun.13 mph100%30.12 "Hg5 mi
7:50 AM39 °FMore clouds than sun.12 mph100%30.12 "Hg3 mi
7:20 AM39 °FMore clouds than sun.13 mph100%30.12 "Hg3 mi
8:50 PM
Sat, Apr 30
39 °FPartly sunny.15 mph93%30.04 "HgN/A
8:20 PM41 °FPartly sunny.16 mph87%30.04 "HgN/A
7:50 PM41 °FPartly sunny.16 mph87%30.04 "HgN/A
7:20 PM43 °FDrizzle. Partly sunny.15 mph81%30.04 "HgN/A
6:50 PM43 °FMore clouds than sun.16 mph87%30.04 "HgN/A
6:20 PM45 °FPartly sunny.15 mph76%30.04 "HgN/A
5:50 PM46 °FOvercast.15 mph76%30.01 "HgN/A
5:20 PM46 °FOvercast.12 mph76%30.01 "HgN/A
4:50 PM46 °FBroken clouds.14 mph71%30.01 "HgN/A
4:20 PM48 °FBroken clouds.10 mph66%30.01 "HgN/A
3:50 PM48 °FBroken clouds.10 mph71%30.01 "HgN/A
3:20 PM46 °FBroken clouds.12 mph76%30.01 "HgN/A
2:50 PM46 °FBroken clouds.10 mph76%30.01 "HgN/A
2:20 PM46 °FPartly sunny.12 mph76%30.01 "HgN/A
1:50 PM46 °FPartly sunny.13 mph76%30.01 "HgN/A
1:20 PM46 °FScattered clouds.10 mph71%30.01 "HgN/A
12:50 PM46 °FScattered clouds.9 mph66%30.01 "HgN/A
12:20 PM48 °FScattered clouds.7 mph62%30.01 "HgN/A
11:50 AM48 °FScattered clouds.8 mph58%30.01 "HgN/A
11:20 AM48 °FPassing clouds.7 mph62%30.01 "HgN/A
10:50 AM46 °FPassing clouds.9 mph62%30.01 "HgN/A
10:20 AM48 °FPassing clouds.7 mph58%30.01 "HgN/A
Weather by CustomWeather, © 2016

See weather overviewHow to use our weather pages